Harrison Township, MI

1:07 AM EST on February 12, 2016 (GMT -0500)
Selfridge Angb

Weather History for KMTC - April, 2014

Change the Weather History Date:

Tuesday, April 1, 2014

  Actual Average Record
Temperature  
Mean Temperature 48 °F -  
Max Temperature 61 °F 51 °F 79 °F (1986)
Min Temperature 36 °F 33 °F 17 °F (1964)
Degree Days  
Heating Degree Days 17    
Moisture  
Dew Point 32 °F    
Average Humidity 60    
Maximum Humidity 80    
Minimum Humidity 41    
Precipitation  
Precipitation 0.00 in - - ()
Sea Level Pressure  
Sea Level Pressure 29.88 in    
Wind  
Wind Speed 11 mph (SSW)    
Max Wind Speed 29 mph    
Max Gust Speed 37 mph    
Visibility 10 miles    
Events      
Averages and records for this station are not official NWS values.
T = Trace of Precipitation, MM = Missing Value Source: NWS Daily Summary

Daily Weather History Graph

Daily Weather History Graph

Search for Another Location

Airport or City:

Trip Planner

Search our weather history database for the weather conditions in past years. The results will help you decide how hot, cold, wet, or windy it might be!

Date:

Astronomy

Apr. 01, 2014 Rise Set
Actual Time 7:13 AM EDT 7:57 PM EDT
Civil Twilight 6:45 AM EDT 8:25 PM EDT
Nautical Twilight 6:11 AM EDT 8:59 PM EDT
Astronomical Twilight 5:36 AM EDT 9:34 PM EDT
Moon 8:13 AM EDT (4/1) 10:21 PM EDT (4/1)
Length of Visible Light 13h 40m
Length of Day
12h 43m
Waxing Crescent, 4% of the Moon is Illuminated
Apr 1
Waxing Crescent
Apr 7
First Quarter
Apr 15
Full
Apr 22
Last Quarter
Apr 29
New

Hourly Weather History & Observations

Time (EDT) Temp. Windchill Dew Point Humidity Pressure Visibility Wind Dir Wind Speed Gust Speed Precip Events Conditions
12:58 AM 36.1 °F 32.3 °F 28.0 °F 72% 30.02 in 10.0 mi ESE 4.6 mph - N/A   Mostly Cloudy
1:58 AM 36.0 °F 30.3 °F 28.8 °F 75% 30.01 in 10.0 mi East 6.9 mph - N/A   Mostly Cloudy
2:58 AM 37.6 °F - 29.8 °F 74% 30.00 in 10.0 mi Variable 1.2 mph - N/A   Overcast
3:58 AM 38.5 °F 31.6 °F 30.2 °F 72% 29.98 in 10.0 mi ESE 10.4 mph - N/A   Mostly Cloudy
4:58 AM 36.9 °F 31.4 °F 31.3 °F 80% 29.94 in 10.0 mi East 6.9 mph - N/A   Partly Cloudy
5:58 AM 38.7 °F 33.6 °F 30.2 °F 72% 29.94 in 10.0 mi SSE 6.9 mph - N/A   Scattered Clouds
6:58 AM 37.4 °F 33.8 °F 30.6 °F 76% 29.91 in 10.0 mi ESE 4.6 mph - N/A   Partly Cloudy
7:55 AM 40.1 °F 33.6 °F 31.1 °F 70% 29.88 in 10.0 mi SE 10.4 mph - N/A   Overcast
8:55 AM 42.4 °F 35.0 °F 31.1 °F 64% 29.85 in 10.0 mi SE 15.0 mph - N/A   Overcast
9:55 AM 46.8 °F - 33.1 °F 59% 29.82 in 10.0 mi SE 11.5 mph - N/A   Overcast
10:55 AM 49.3 °F - 34.9 °F 58% 29.81 in 10.0 mi South 17.3 mph - N/A   Scattered Clouds
11:55 AM 56.7 °F - 38.7 °F 51% 29.75 in 10.0 mi South 19.6 mph - N/A   Partly Cloudy
12:55 PM 60.3 °F - 41.5 °F 50% 29.71 in 10.0 mi SSW 28.8 mph 35.7 mph N/A   Mostly Cloudy
1:59 PM 60.3 °F - 38.7 °F 45% 29.72 in 10.0 mi SW 27.6 mph 36.8 mph N/A   Scattered Clouds
2:55 PM 59.7 °F - 35.6 °F 41% 29.74 in 10.0 mi SW 21.9 mph 33.4 mph N/A   Scattered Clouds
3:55 PM 58.3 °F - 34.3 °F 41% 29.76 in 10.0 mi WSW 18.4 mph 35.7 mph N/A   Scattered Clouds
4:55 PM 55.8 °F - 33.6 °F 43% 29.78 in 10.0 mi WSW 21.9 mph 32.2 mph N/A   Scattered Clouds
5:55 PM 54.0 °F - 32.5 °F 44% 29.81 in 10.0 mi West 16.1 mph 32.2 mph N/A   Partly Cloudy
6:55 PM 48.9 °F - 30.9 °F 50% 29.87 in 10.0 mi West 17.3 mph 29.9 mph N/A   Scattered Clouds
7:55 PM 42.4 °F 35.7 °F 28.6 °F 58% 29.92 in 10.0 mi WNW 12.7 mph - N/A   Partly Cloudy
8:58 PM 40.6 °F 32.3 °F 27.5 °F 59% 29.94 in 10.0 mi WNW 16.1 mph 23.0 mph N/A   Clear
9:58 PM 38.5 °F 30.7 °F 26.6 °F 62% 29.97 in 10.0 mi West 12.7 mph - N/A   Clear
10:58 PM 37.8 °F 31.3 °F 26.4 °F 64% 30.00 in 10.0 mi West 9.2 mph - N/A   Clear
11:58 PM 37.6 °F 33.1 °F 25.5 °F 62% 30.02 in 10.0 mi West 5.8 mph - N/A   Clear